Hourly Data Report for September 12, 2017

All times are specified in Local Standard Time (LST). Add 1 hour to adjust for Daylight Saving Time where and when it is observed.

PORT ALBERNI (AUT)
BRITISH COLUMBIA

49°18'59.700" N
124°55'36.600" W
76.20 m
1036B06
71475
WQC

Download Data

Hourly Data (September 2017)
Hourly Data Report for September 12, 2017
Temp Definition
°C
Dew Point Temp Definition
°C
Rel Hum Definition
%
Wind Dir Definition
10's deg

Wind Spd Definition
km/h
Visibility Definition
km
Stn Press Definition
kPa
Hmdx Definition


Wind Chill Definition


Weather Definition


TIME
00:00 16.9 14.3 85 13 2   100.78     LegendNANA
01:00 16.8 14.4 86 10 2   100.80     LegendNANA
02:00 16.7 14.7 88 20 3   100.78     LegendNANA
03:00 16.1 14.9 93 22 2   100.78     LegendNANA
04:00 15.8 15.0 95 20 2   100.73     LegendNANA
05:00 15.6 14.9 96 24 2   100.74     LegendNANA
06:00 15.2 14.7 97 12 4   100.72     LegendNANA
07:00 15.4 14.9 97 13 3   100.76     LegendNANA
08:00 15.6 14.6 93 15 4   100.77     LegendNANA
09:00 16.3 14.1 87 13 5   100.74     LegendNANA
10:00 17.0 13.7 81 9 4   100.76     LegendNANA
11:00 19.0 13.9 72 21 3   100.72     LegendNANA
12:00 20.7 13.6 64 8 4   100.66     LegendNANA
13:00 21.3 12.6 58 13 3   100.58     LegendNANA
14:00 22.8 11.8 50 15 7   100.53 25   LegendNANA
15:00 23.1 11.9 49 12 5   100.49 25   LegendNANA
16:00 22.7 11.2 48 14 12   100.48 25   LegendNANA
17:00 21.7 10.9 50 12 11   100.46     LegendNANA
18:00 19.1 10.6 58 19 7   100.47     LegendNANA
19:00 17.7 10.1 61 24 3   100.53     LegendNANA
20:00 16.5 9.4 63 22 4   100.56     LegendNANA
21:00 14.6 9.2 70 24 3   100.57     LegendNANA
22:00 13.8 9.9 77 28 4   100.58     LegendNANA
23:00 12.1 8.9 81 30 4   100.61     LegendNANA

Notes on Data Quality.

Legend

  • E = Estimated
  • M = Missing
  • NA = Not Available
  • ‡ = Partner data that is not subject to review by the National Climate Archives
Date modified: